{"data":{"norad_id":59691,"epoch":"2026-09-21T19:48:14.112576Z","epoch_age_seconds":56850,"freshness":"FRESH","line1":"1 59691U 24086K   26264.82516334  .00000934  00000+0  43476-4 0  9995","line2":"2 59691  43.0060  36.1019 0001638 289.1602  70.9072 15.27581921134061","mean_motion":15.27581921,"eccentricity":0.0001638,"inclination_deg":43.006,"raan_deg":36.1019,"arg_perigee_deg":289.1602,"mean_anomaly_deg":70.9072,"bstar":4.3476e-5,"rev_number":13406,"period_min":94.266630169159,"perigee_km":481.91948254028,"apogee_km":484.16720522093,"semimajor_km":6861.1803438806,"source":"CELESTRAK","updated_at":"2026-09-22T09:00:49.034018Z"}}